Bishop, CA

10:05 AM PST on December 11, 2017 (GMT -0800)
Bishop

Weather History for KBIH - March, 2014

Change the Weather History Date:

Monday, March 31, 2014

  Actual Average Record
Temperature  
Mean Temperature 44 °F 51 °F  
Max Temperature 62 °F 69 °F 87 °F (1966)
Min Temperature 26 °F 33 °F 21 °F (2009)
Degree Days  
Heating Degree Days 21 14  
Month to date heating degree days 435 516  
Since 1 July heating degree days 3385 3723  
Cooling Degree Days 0 0  
Month to date cooling degree days 0 0  
Year to date cooling degree days 0 0  
Moisture  
Dew Point 16 °F    
Average Humidity 54    
Maximum Humidity 92    
Minimum Humidity 15    
Precipitation  
Precipitation 0.01 in 0.01 in 0.52 in (1978)
Month to date precipitation 0.04 0.53  
Year to date precipitation 1.95 2.43  
Snow  
Snow 0.00 in 0.00 in 0.50 in (1967)
Month to date snowfall 0.0 0.5  
Since 1 July snowfall 0.5 7.9  
Snow Depth 0.00 in    
Sea Level Pressure  
Sea Level Pressure 29.77 in    
Wind  
Wind Speed 10 mph (West)    
Max Wind Speed 30 mph    
Max Gust Speed 39 mph    
Visibility 10 miles    
Events Rain    
T = Trace of Precipitation, MM = Missing Value Source: NWS Daily Summary

Daily Weather History Graph

Daily Weather History Graph

Search for Another Location

Airport or City:

Trip Planner

Search our weather history database for the weather conditions in past years. The results will help you decide how hot, cold, wet, or windy it might be!

Date:

Astronomy

Mar. 31, 2014 Rise Set
Actual Time 6:40 AM PDT 7:15 PM PDT
Civil Twilight 6:14 AM PDT 7:41 PM PDT
Nautical Twilight 5:43 AM PDT 8:12 PM PDT
Astronomical Twilight 5:11 AM PDT 8:44 PM PDT
Moon 7:08 AM PDT (3/31) 8:37 PM PDT (3/31)
Length of Visible Light 13h 27m
Length of Day
12h 34m
New Moon, 1% of the Moon is Illuminated
Mar 31
New Moon
Apr 7
First Quarter
Apr 15
Full
Apr 22
Last Quarter
Apr 28
New

Hourly Weather History & Observations

Time (PDT) Temp. Windchill Dew Point Humidity Pressure Visibility Wind Dir Wind Speed Gust Speed Precip Events Conditions
12:56 AM 37.0 °F 30.4 °F 14.0 °F 39% 29.92 in 10.0 mi NW 9.2 mph - N/A   Clear
1:56 AM 35.1 °F 32.2 °F 12.9 °F 40% 29.90 in 10.0 mi NNW 3.5 mph - N/A   Clear
2:56 AM 32.0 °F 26.4 °F 12.9 °F 45% 29.88 in 10.0 mi North 5.8 mph - N/A   Clear
3:56 AM 30.0 °F 24.1 °F 14.0 °F 51% 29.87 in 10.0 mi NW 5.8 mph - N/A   Clear
4:56 AM 28.9 °F 22.8 °F 14.0 °F 54% 29.87 in 10.0 mi WNW 5.8 mph - N/A   Clear
5:56 AM 30.0 °F 23.2 °F 14.0 °F 51% 29.87 in 10.0 mi North 6.9 mph - N/A   Clear
6:56 AM 30.9 °F 27.5 °F 14.0 °F 50% 29.86 in 10.0 mi NW 3.5 mph - N/A   Clear
7:56 AM 37.0 °F 31.6 °F 12.9 °F 37% 29.86 in 10.0 mi West 6.9 mph - N/A   Clear
8:56 AM 45.0 °F 43.5 °F 12.9 °F 27% 29.85 in 10.0 mi North 3.5 mph - N/A   Clear
9:56 AM 50.0 °F - 12.9 °F 23% 29.83 in 10.0 mi Variable 3.5 mph - N/A   Clear
10:56 AM 53.1 °F - 12.0 °F 20% 29.82 in 10.0 mi South 5.8 mph - N/A   Scattered Clouds
11:56 AM 55.9 °F - 10.9 °F 17% 29.78 in 10.0 mi Variable 5.8 mph - N/A   Partly Cloudy
12:56 PM 60.1 °F - 12.9 °F 16% 29.75 in 10.0 mi South 10.4 mph - N/A   Clear
1:56 PM 57.9 °F - 12.9 °F 17% 29.75 in 10.0 mi West 24.2 mph 33.4 mph N/A   Clear
2:56 PM 57.0 °F - 17.1 °F 21% 29.72 in 10.0 mi West 17.3 mph 35.7 mph N/A   Clear
3:56 PM 57.0 °F - 15.1 °F 19% 29.69 in 10.0 mi WNW 26.5 mph 34.5 mph N/A   Mostly Cloudy
4:10 PM 61.0 °F - 14.0 °F 16% 29.72 in 10.0 mi NNW 12.7 mph 27.6 mph N/A   Overcast
4:56 PM 60.1 °F - 12.0 °F 15% 29.65 in 10.0 mi SSE 19.6 mph - N/A   Mostly Cloudy
5:56 PM 55.9 °F - 12.0 °F 18% 29.67 in 10.0 mi SE 21.9 mph 28.8 mph N/A   Partly Cloudy
6:56 PM 50.0 °F - 15.1 °F 25% 29.69 in 10.0 mi South 4.6 mph - N/A   Clear
7:56 PM 48.0 °F - 19.0 °F 32% 29.68 in 10.0 mi SSE 15.0 mph - N/A   Clear
8:56 PM 46.0 °F 38.8 °F 25.0 °F 44% 29.65 in 10.0 mi ESE 18.4 mph - N/A   Mostly Cloudy
9:56 PM 46.0 °F 39.0 °F 26.1 °F 46% 29.66 in 10.0 mi SSE 17.3 mph 25.3 mph N/A   Overcast
10:56 PM 39.9 °F 32.9 °F 33.1 °F 77% 29.70 in 10.0 mi South 11.5 mph - 0.00 in Rain Light Rain
11:56 PM 37.9 °F 32.7 °F 35.1 °F 89% 29.72 in 10.0 mi East 6.9 mph - 0.01 in Rain Light Rain